TimeCDT,TemperatureF,Dew PointF,Humidity,Sea Level PressureIn,VisibilityMPH,Wind Direction,Wind SpeedMPH,Gust SpeedMPH,PrecipitationIn,Events,Conditions,WindDirDegrees,DateUTC
12:53 AM,69.1,64.0,84,29.96,10.0,NNW,5.8,-,0.00,,Mostly Cloudy,330,2013-07-28 05:53:00
1:53 AM,68.0,62.1,81,29.97,10.0,North,4.6,-,N/A,,Overcast,350,2013-07-28 06:53:00
2:53 AM,66.0,59.0,78,29.98,10.0,NNE,6.9,-,N/A,,Overcast,20,2013-07-28 07:53:00
3:53 AM,63.0,55.9,78,29.98,10.0,North,5.8,-,N/A,,Partly Cloudy,360,2013-07-28 08:53:00
4:53 AM,63.0,55.0,75,30.00,10.0,NNE,5.8,-,N/A,,Partly Cloudy,20,2013-07-28 09:53:00
5:53 AM,63.0,55.0,75,30.02,10.0,North,4.6,-,N/A,,Scattered Clouds,360,2013-07-28 10:53:00
6:53 AM,64.0,55.9,75,30.04,10.0,NE,3.5,-,N/A,,Scattered Clouds,50,2013-07-28 11:53:00
7:53 AM,66.0,53.1,63,30.05,10.0,NE,8.1,-,N/A,,Scattered Clouds,40,2013-07-28 12:53:00
8:53 AM,69.1,48.9,49,30.07,10.0,NE,8.1,-,N/A,,Scattered Clouds,40,2013-07-28 13:53:00
9:53 AM,71.1,51.1,49,30.06,10.0,NE,5.8,-,N/A,,Scattered Clouds,50,2013-07-28 14:53:00
10:53 AM,73.9,50.0,43,30.06,10.0,NNE,6.9,-,N/A,,Scattered Clouds,20,2013-07-28 15:53:00
11:53 AM,75.9,51.1,42,30.06,10.0,NE,8.1,-,N/A,,Mostly Cloudy,40,2013-07-28 16:53:00
12:53 PM,78.1,51.1,39,30.05,10.0,West,3.5,-,N/A,,Mostly Cloudy,260,2013-07-28 17:53:00
1:53 PM,80.1,53.1,39,30.04,10.0,Variable,4.6,-,N/A,,Mostly Cloudy,0,2013-07-28 18:53:00
2:53 PM,80.1,51.1,36,30.02,10.0,West,5.8,-,N/A,,Mostly Cloudy,260,2013-07-28 19:53:00
3:53 PM,78.1,53.1,42,30.02,10.0,Variable,3.5,-,N/A,,Mostly Cloudy,0,2013-07-28 20:53:00
4:53 PM,77.0,53.1,43,30.02,10.0,WNW,5.8,-,N/A,,Mostly Cloudy,290,2013-07-28 21:53:00
5:53 PM,75.0,54.0,48,30.03,10.0,WNW,6.9,-,N/A,,Mostly Cloudy,290,2013-07-28 22:53:00
6:53 PM,73.9,53.1,48,30.05,10.0,WNW,4.6,-,N/A,,Mostly Cloudy,290,2013-07-28 23:53:00
7:53 PM,72.0,52.0,49,30.05,10.0,NNW,3.5,-,N/A,,Mostly Cloudy,340,2013-07-29 00:53:00
8:53 PM,68.0,54.0,61,30.07,10.0,Calm,Calm,-,N/A,,Mostly Cloudy,0,2013-07-29 01:53:00
9:53 PM,66.9,57.0,70,30.09,10.0,Calm,Calm,-,N/A,,Mostly Cloudy,0,2013-07-29 02:53:00
10:53 PM,66.0,57.9,75,30.09,10.0,Calm,Calm,-,N/A,,Scattered Clouds,0,2013-07-29 03:53:00
11:53 PM,64.9,57.9,78,30.09,10.0,Calm,Calm,-,N/A,,Scattered Clouds,0,2013-07-29 04:53:00